QPF
0.02 0.02 0.02 0.01 0.01 0.01 0.01 0.01 0.01 0.01 0.02 0.02 0.02 0.03 0.02 0.02 0.02 0.02 0.03 0.03 0.03 0.03 0.02 0.01 0.01 0.01 0.02 0.02 0.02 0.02 0.03 0.11 0.14 0.13 0.10 0.07 0.05 0.04 0.04 0.05 0.05 0.04 0.05
0.01 0.02 0.02 0.01 0.01 0.01 0.01 0.01 0.01 0.01 0.01 0.02 0.02 0.03 0.02 0.02 0.02 0.02 0.02 0.02 0.02 0.03 0.04 0.03 0.03 0.04 0.03 0.02 0.02 0.03 0.02 0.03 0.05 0.07 0.08 0.07 0.05 0.03 0.04 0.05 0.04 0.04 0.05
0.01 0.01 0.01 0.01 0.01 0.01 0.01 0.02 0.03 0.02 0.02 0.03 0.03 0.03 0.03 0.03 0.02 0.02 0.02 0.02 0.03 0.06 0.07 0.06 0.05 0.05 0.03 0.04 0.05 0.05 0.04 0.03 0.04 0.04 0.05 0.05 0.04 0.04 0.04 0.04 0.03 0.03 0.03
0.01 0.01 0.01 0.02 0.01 0.01 0.02 0.02 0.02 0.02 0.03 0.05 0.05 0.04 0.04 0.04 0.03 0.03 0.04 0.04 0.05 0.05 0.04 0.05 0.06 0.05 0.04 0.05 0.05 0.04 0.04 0.04 0.05 0.04 0.04 0.05 0.04 0.05 0.04 0.03 0.03 0.03 0.03
0.01 0.01 0.02 0.02 0.02 0.02 0.02 0.03 0.03 0.03 0.03 0.05 0.07 0.06 0.06 0.05 0.05 0.05 0.06 0.05 0.04 0.04 0.04 0.05 0.06 0.06 0.06 0.06 0.07 0.07 0.06 0.05 0.05 0.04 0.04 0.03 0.04 0.04 0.05 0.04 0.02 0.02 0.02
0.01 0.01 0.01 0.01 0.02 0.03 0.04 0.04 0.04 0.04 0.05 0.08 0.09 0.09 0.10 0.10 0.09 0.09 0.07 0.04 0.04 0.04 0.03 0.04 0.05 0.06 0.06 0.08 0.15 0.10 0.07 0.05 0.05 0.05 0.04 0.04 0.04 0.04 0.04 0.04 0.03 0.02 0.02
0.01 0.01 0.01 0.01 0.01 0.01 0.02 0.03 0.04 0.05 0.08 0.11 0.10 0.11 0.12 0.11 0.09 0.09 0.09 0.06 0.05 0.04 0.05 0.05 0.04 0.04 0.05 0.08 0.11 0.08 0.07 0.07 0.07 0.07 0.06 0.05 0.04 0.03 0.04 0.04 0.04 0.02 0.02
0.00 0.00 0.01 0.01 0.00 0.01 0.02 0.02 0.03 0.04 0.05 0.06 0.06 0.06 0.06 0.05 0.05 0.07 0.07 0.06 0.05 0.04 0.03 0.03 0.02 0.03 0.05 0.08 0.08 0.07 0.08 0.09 0.09 0.07 0.06 0.05 0.04 0.04 0.03 0.04 0.04 0.04 0.03
0.00 0.00 0.01 0.01 0.01 0.00 0.00 0.00 0.02 0.02 0.03 0.04 0.04 0.03 0.01 0.01 0.02 0.03 0.03 0.03 0.03 0.03 0.02 0.02 0.03 0.04 0.05 0.08 0.09 0.09 0.08 0.08 0.08 0.07 0.06 0.05 0.05 0.04 0.02 0.02 0.03 0.03 0.03
0.00 0.00 0.01 0.01 0.01 0.00 0.00 0.00 0.01 0.02 0.03 0.04 0.03 0.02 0.00 0.00 0.01 0.02 0.02 0.02 0.02 0.02 0.01 0.02 0.03 0.04 0.06 0.08 0.08 0.08 0.09 0.07 0.05 0.05 0.05 0.04 0.04 0.04 0.03 0.02 0.02 0.02 0.02
0.00 0.01 0.01 0.01 0.01 0.01 0.01 0.01 0.01 0.02 0.02 0.01 0.01 0.01 0.00 0.00 0.01 0.01 0.02 0.01 0.01 0.01 0.02 0.02 0.03 0.04 0.04 0.05 0.05 0.06 0.07 0.05 0.04 0.03 0.03 0.03 0.04 0.04 0.03 0.03 0.03 0.03 0.03
0.01 0.01 0.01 0.01 0.01 0.01 0.02 0.02 0.03 0.02 0.01 0.01 0.00 0.00 0.00 0.00 0.01 0.01 0.01 0.01 0.02 0.03 0.03 0.04 0.05 0.07 0.07 0.06 0.05 0.04 0.03 0.03 0.04 0.03 0.02 0.02 0.03 0.03 0.03 0.03 0.04 0.04 0.05
0.01 0.01 0.02 0.01 0.01 0.01 0.01 0.01 0.01 0.01 0.02 0.01 0.01 0.00 0.00 0.00 0.00 0.01 0.01 0.02 0.03 0.04 0.03 0.03 0.03 0.04 0.05 0.04 0.04 0.03 0.02 0.02 0.03 0.03 0.02 0.02 0.02 0.02 0.03 0.03 0.04 0.05 0.06
0.02 0.02 0.01 0.01 0.01 0.01 0.01 0.00 0.00 0.01 0.03 0.03 0.02 0.01 0.00 0.00 0.01 0.01 0.01 0.02 0.03 0.03 0.03 0.03 0.04 0.05 0.05 0.04 0.04 0.03 0.02 0.02 0.02 0.03 0.04 0.03 0.02 0.01 0.02 0.03 0.04 0.05 0.06
0.02 0.03 0.02 0.01 0.01 0.01 0.01 0.00 0.01 0.02 0.02 0.03 0.03 0.02 0.01 0.01 0.00 0.01 0.01 0.03 0.04 0.04 0.02 0.02 0.04 0.06 0.05 0.05 0.06 0.05 0.03 0.02 0.02 0.03 0.03 0.03 0.02 0.02 0.02 0.02 0.03 0.04 0.04
0.01 0.02 0.01 0.01 0.01 0.01 0.01 0.00 0.01 0.01 0.02 0.03 0.03 0.04 0.03 0.02 0.01 0.02 0.04 0.04 0.05 0.04 0.03 0.04 0.05 0.06 0.05 0.05 0.04 0.03 0.02 0.02 0.01 0.01 0.01 0.02 0.02 0.02 0.02 0.02 0.03 0.03 0.03
0.01 0.01 0.01 0.00 0.00 0.01 0.01 0.01 0.01 0.01 0.01 0.02 0.03 0.04 0.05 0.05 0.04 0.04 0.05 0.03 0.03 0.02 0.02 0.03 0.04 0.05 0.05 0.04 0.03 0.02 0.02 0.01 0.01 0.01 0.01 0.01 0.01 0.01 0.01 0.01 0.02 0.02 0.03
0.01 0.01 0.01 0.00 0.00 0.01 0.01 0.02 0.01 0.01 0.00 0.01 0.01 0.03 0.03 0.04 0.03 0.02 0.02 0.02 0.02 0.02 0.02 0.03 0.04 0.05 0.05 0.04 0.02 0.02 0.02 0.02 0.02 0.02 0.02 0.01 0.01 0.01 0.02 0.02 0.01 0.01 0.02
0.01 0.01 0.00 0.00 0.01 0.01 0.02 0.03 0.02 0.01 0.00 0.00 0.01 0.02 0.02 0.03 0.02 0.02 0.02 0.02 0.03 0.03 0.03 0.03 0.03 0.03 0.04 0.04 0.03 0.03 0.02 0.02 0.03 0.03 0.02 0.02 0.01 0.02 0.02 0.01 0.01 0.02 0.02
0.01 0.01 0.00 0.00 0.01 0.01 0.02 0.02 0.01 0.01 0.00 0.01 0.01 0.02 0.03 0.04 0.03 0.03 0.04 0.04 0.03 0.03 0.02 0.02 0.02 0.02 0.03 0.03 0.03 0.02 0.02 0.02 0.02 0.02 0.02 0.02 0.02 0.02 0.02 0.01 0.02 0.02 0.03
0.01 0.01 0.01 0.01 0.01 0.02 0.02 0.01 0.01 0.01 0.02 0.03 0.02 0.02 0.02 0.04 0.04 0.03 0.03 0.03 0.02 0.02 0.01 0.01 0.01 0.01 0.02 0.03 0.04 0.03 0.02 0.02 0.02 0.03 0.04 0.03 0.03 0.02 0.02 0.02 0.01 0.03 0.03
0.02 0.02 0.03 0.04 0.02 0.02 0.02 0.02 0.02 0.02 0.03 0.03 0.03 0.02 0.03 0.02 0.02 0.03 0.03 0.03 0.03 0.02 0.01 0.01 0.02 0.02 0.02 0.03 0.04 0.04 0.04 0.03 0.03 0.03 0.03 0.03 0.03 0.03 0.03 0.02 0.02 0.03 0.03
0.04 0.03 0.03 0.04 0.04 0.04 0.05 0.04 0.04 0.05 0.04 0.04 0.03 0.03 0.03 0.03 0.03 0.04 0.05 0.04 0.04 0.03 0.02 0.02 0.02 0.02 0.02 0.03 0.02 0.02 0.02 0.02 0.02 0.02 0.02 0.03 0.04 0.03 0.03 0.03 0.03 0.02 0.02
0.05 0.06 0.05 0.06 0.07 0.09 0.10 0.09 0.07 0.07 0.06 0.05 0.04 0.03 0.03 0.02 0.03 0.03 0.04 0.05 0.05 0.04 0.03 0.03 0.03 0.03 0.03 0.02 0.02 0.02 0.01 0.02 0.01 0.01 0.02 0.03 0.03 0.04 0.03 0.03 0.03 0.03 0.02
0.02 0.03 0.03 0.03 0.04 0.06 0.08 0.10 0.10 0.09 0.07 0.06 0.05 0.05 0.05 0.05 0.04 0.03 0.03 0.03 0.04 0.04 0.03 0.03 0.03 0.03 0.02 0.02 0.02 0.02 0.02 0.02 0.02 0.02 0.02 0.02 0.02 0.02 0.02 0.02 0.03 0.03 0.02
0.02 0.03 0.03 0.04 0.05 0.07 0.07 0.08 0.10 0.10 0.09 0.08 0.06 0.06 0.06 0.05 0.04 0.03 0.03 0.04 0.04 0.04 0.04 0.03 0.02 0.02 0.01 0.01 0.01 0.01 0.02 0.02 0.02 0.02 0.02 0.01 0.01 0.01 0.01 0.02 0.03 0.03 0.02
MSLP
1012.28 1011.92 1011.51 1011.06 1010.57 1010.08 1009.61 1009.20 1008.86 1008.59 1008.36 1008.16 1007.95 1007.71 1007.43 1007.13 1006.83 1006.57 1006.37 1006.24 1006.17 1006.14 1006.11 1006.02 1005.84 1005.54 1005.14 1004.66 1004.16 1003.71 1003.36 1003.17 1003.14 1003.28 1003.55 1003.91 1004.29 1004.65 1004.97 1005.23 1005.42 1005.55 1005.63
1013.04 1012.75 1012.38 1011.92 1011.38 1010.81 1010.24 1009.73 1009.31 1009.00 1008.76 1008.57 1008.40 1008.20 1007.95 1007.66 1007.36 1007.07 1006.83 1006.67 1006.59 1006.56 1006.55 1006.50 1006.37 1006.13 1005.77 1005.32 1004.83 1004.37 1003.99 1003.77 1003.71 1003.82 1004.07 1004.40 1004.76 1005.09 1005.37 1005.56 1005.67 1005.72 1005.71
1013.72 1013.52 1013.21 1012.76 1012.19 1011.56 1010.92 1010.33 1009.84 1009.48 1009.23 1009.06 1008.92 1008.75 1008.54 1008.27 1007.97 1007.66 1007.40 1007.20 1007.09 1007.06 1007.05 1007.03 1006.94 1006.74 1006.43 1006.02 1005.55 1005.10 1004.72 1004.48 1004.40 1004.49 1004.70 1005.00 1005.32 1005.61 1005.82 1005.95 1005.99 1005.95 1005.87
1014.29 1014.18 1013.94 1013.53 1012.97 1012.31 1011.62 1010.98 1010.44 1010.05 1009.79 1009.63 1009.51 1009.38 1009.20 1008.96 1008.66 1008.35 1008.06 1007.83 1007.69 1007.63 1007.61 1007.59 1007.52 1007.35 1007.08 1006.70 1006.27 1005.84 1005.48 1005.23 1005.14 1005.20 1005.38 1005.63 1005.90 1006.13 1006.28 1006.33 1006.30 1006.20 1006.06
1014.74 1014.73 1014.57 1014.22 1013.70 1013.04 1012.33 1011.66 1011.09 1010.67 1010.40 1010.25 1010.15 1010.06 1009.92 1009.70 1009.42 1009.11 1008.80 1008.54 1008.36 1008.25 1008.20 1008.16 1008.08 1007.93 1007.68 1007.34 1006.95 1006.55 1006.21 1005.98 1005.87 1005.91 1006.04 1006.24 1006.44 1006.60 1006.68 1006.67 1006.58 1006.43 1006.25
1015.09 1015.17 1015.10 1014.83 1014.37 1013.74 1013.04 1012.36 1011.77 1011.33 1011.05 1010.89 1010.81 1010.74 1010.63 1010.45 1010.19 1009.88 1009.57 1009.28 1009.05 1008.90 1008.80 1008.72 1008.62 1008.47 1008.23 1007.92 1007.57 1007.21 1006.89 1006.67 1006.57 1006.57 1006.66 1006.80 1006.93 1007.01 1007.02 1006.95 1006.80 1006.62 1006.43
1015.36 1015.53 1015.56 1015.38 1014.99 1014.42 1013.74 1013.07 1012.47 1012.02 1011.71 1011.55 1011.46 1011.41 1011.32 1011.17 1010.94 1010.64 1010.32 1010.02 1009.76 1009.55 1009.40 1009.28 1009.15 1008.98 1008.75 1008.46 1008.14 1007.82 1007.54 1007.33 1007.22 1007.20 1007.24 1007.31 1007.37 1007.38 1007.31 1007.19 1007.01 1006.81 1006.62
1015.57 1015.83 1015.95 1015.87 1015.56 1015.06 1014.43 1013.77 1013.18 1012.70 1012.38 1012.19 1012.09 1012.03 1011.96 1011.83 1011.62 1011.35 1011.04 1010.73 1010.44 1010.20 1010.00 1009.84 1009.67 1009.48 1009.25 1008.99 1008.70 1008.41 1008.16 1007.97 1007.86 1007.81 1007.80 1007.81 1007.79 1007.73 1007.61 1007.44 1007.23 1007.03 1006.85
1015.75 1016.09 1016.31 1016.32 1016.09 1015.66 1015.09 1014.47 1013.87 1013.39 1013.03 1012.81 1012.69 1012.62 1012.54 1012.42 1012.24 1011.99 1011.70 1011.39 1011.10 1010.84 1010.61 1010.41 1010.21 1010.01 1009.78 1009.53 1009.27 1009.02 1008.80 1008.63 1008.51 1008.43 1008.38 1008.33 1008.25 1008.13 1007.96 1007.76 1007.54 1007.33 1007.17
1015.93 1016.34 1016.63 1016.72 1016.58 1016.22 1015.71 1015.12 1014.55 1014.05 1013.68 1013.42 1013.27 1013.17 1013.08 1012.97 1012.80 1012.58 1012.31 1012.02 1011.74 1011.47 1011.22 1011.00 1010.79 1010.58 1010.36 1010.13 1009.89 1009.67 1009.48 1009.32 1009.19 1009.10 1009.01 1008.91 1008.79 1008.62 1008.41 1008.18 1007.96 1007.76 1007.60
1016.10 1016.57 1016.91 1017.06 1016.99 1016.70 1016.25 1015.71 1015.17 1014.68 1014.30 1014.02 1013.83 1013.70 1013.60 1013.48 1013.32 1013.12 1012.88 1012.62 1012.35 1012.09 1011.85 1011.63 1011.41 1011.20 1010.99 1010.78 1010.57 1010.37 1010.20 1010.05 1009.93 1009.81 1009.70 1009.57 1009.40 1009.20 1008.96 1008.72 1008.49 1008.29 1008.15
1016.29 1016.78 1017.15 1017.33 1017.31 1017.08 1016.70 1016.22 1015.73 1015.27 1014.88 1014.59 1014.38 1014.23 1014.10 1013.98 1013.82 1013.64 1013.42 1013.19 1012.95 1012.71 1012.48 1012.27 1012.06 1011.85 1011.65 1011.46 1011.27 1011.09 1010.93 1010.80 1010.67 1010.55 1010.41 1010.25 1010.05 1009.82 1009.57 1009.31 1009.08 1008.88 1008.73
1016.47 1016.95 1017.32 1017.51 1017.52 1017.35 1017.03 1016.63 1016.20 1015.78 1015.43 1015.14 1014.92 1014.75 1014.61 1014.46 1014.31 1014.13 1013.94 1013.73 1013.52 1013.30 1013.10 1012.90 1012.70 1012.51 1012.32 1012.13 1011.96 1011.79 1011.64 1011.51 1011.38 1011.24 1011.09 1010.90 1010.68 1010.43 1010.16 1009.89 1009.64 1009.43 1009.28
1016.63 1017.08 1017.41 1017.60 1017.62 1017.49 1017.25 1016.92 1016.57 1016.23 1015.92 1015.66 1015.44 1015.26 1015.10 1014.94 1014.78 1014.61 1014.43 1014.24 1014.05 1013.86 1013.68 1013.49 1013.31 1013.13 1012.94 1012.76 1012.59 1012.43 1012.28 1012.13 1011.99 1011.84 1011.66 1011.45 1011.21 1010.93 1010.64 1010.35 1010.09 1009.86 1009.69
1016.75 1017.15 1017.43 1017.59 1017.62 1017.53 1017.35 1017.12 1016.86 1016.60 1016.35 1016.13 1015.93 1015.75 1015.58 1015.40 1015.23 1015.06 1014.88 1014.71 1014.54 1014.37 1014.21 1014.04 1013.87 1013.69 1013.50 1013.32 1013.13 1012.96 1012.79 1012.63 1012.47 1012.29 1012.09 1011.85 1011.58 1011.28 1010.96 1010.65 1010.36 1010.11 1009.92
1016.83 1017.16 1017.39 1017.51 1017.54 1017.49 1017.39 1017.24 1017.08 1016.90 1016.73 1016.56 1016.39 1016.21 1016.03 1015.85 1015.66 1015.48 1015.31 1015.15 1014.99 1014.84 1014.69 1014.53 1014.36 1014.18 1013.98 1013.78 1013.58 1013.38 1013.19 1013.00 1012.80 1012.59 1012.35 1012.08 1011.78 1011.45 1011.10 1010.76 1010.44 1010.17 1009.94
1016.85 1017.12 1017.30 1017.40 1017.43 1017.42 1017.38 1017.32 1017.25 1017.17 1017.07 1016.95 1016.80 1016.64 1016.45 1016.26 1016.06 1015.87 1015.70 1015.55 1015.40 1015.27 1015.13 1014.98 1014.81 1014.61 1014.40 1014.17 1013.94 1013.70 1013.47 1013.24 1013.00 1012.76 1012.49 1012.18 1011.85 1011.49 1011.11 1010.74 1010.39 1010.08 1009.83
1016.81 1017.04 1017.19 1017.28 1017.33 1017.36 1017.38 1017.40 1017.42 1017.41 1017.37 1017.30 1017.18 1017.02 1016.83 1016.63 1016.42 1016.23 1016.06 1015.91 1015.78 1015.66 1015.53 1015.38 1015.21 1015.00 1014.76 1014.50 1014.23 1013.96 1013.68 1013.41 1013.14 1012.85 1012.54 1012.21 1011.85 1011.46 1011.06 1010.67 1010.30 1009.97 1009.69
1016.73 1016.96 1017.10 1017.19 1017.26 1017.33 1017.42 1017.51 1017.59 1017.64 1017.65 1017.60 1017.50 1017.34 1017.15 1016.95 1016.74 1016.55 1016.39 1016.25 1016.13 1016.02 1015.90 1015.76 1015.58 1015.35 1015.09 1014.80 1014.50 1014.18 1013.87 1013.56 1013.25 1012.94 1012.61 1012.25 1011.88 1011.48 1011.06 1010.66 1010.28 1009.93 1009.64
1016.65 1016.88 1017.03 1017.15 1017.25 1017.37 1017.50 1017.64 1017.76 1017.85 1017.89 1017.86 1017.76 1017.61 1017.42 1017.21 1017.00 1016.82 1016.67 1016.55 1016.45 1016.35 1016.24 1016.10 1015.91 1015.68 1015.40 1015.09 1014.75 1014.41 1014.07 1013.73 1013.40 1013.07 1012.73 1012.37 1011.99 1011.60 1011.19 1010.79 1010.41 1010.06 1009.77
1016.56 1016.82 1017.01 1017.16 1017.30 1017.45 1017.62 1017.79 1017.94 1018.04 1018.08 1018.06 1017.96 1017.80 1017.61 1017.40 1017.21 1017.04 1016.90 1016.80 1016.72 1016.64 1016.54 1016.40 1016.21 1015.97 1015.67 1015.35 1014.99 1014.63 1014.28 1013.93 1013.59 1013.26 1012.92 1012.58 1012.22 1011.84 1011.46 1011.08 1010.72 1010.40 1010.11
1016.51 1016.80 1017.02 1017.21 1017.38 1017.57 1017.76 1017.94 1018.09 1018.19 1018.23 1018.19 1018.08 1017.92 1017.73 1017.53 1017.35 1017.19 1017.08 1016.99 1016.92 1016.85 1016.76 1016.62 1016.43 1016.18 1015.88 1015.55 1015.19 1014.83 1014.48 1014.13 1013.81 1013.49 1013.18 1012.86 1012.53 1012.19 1011.84 1011.50 1011.18 1010.88 1010.62
1016.47 1016.80 1017.05 1017.27 1017.48 1017.68 1017.88 1018.06 1018.20 1018.28 1018.30 1018.25 1018.14 1017.97 1017.78 1017.59 1017.42 1017.28 1017.18 1017.10 1017.04 1016.97 1016.88 1016.74 1016.55 1016.30 1016.00 1015.67 1015.32 1014.97 1014.63 1014.30 1014.00 1013.71 1013.42 1013.14 1012.85 1012.56 1012.26 1011.96 1011.69 1011.43 1011.20
1016.45 1016.80 1017.08 1017.33 1017.55 1017.76 1017.96 1018.13 1018.25 1018.32 1018.32 1018.25 1018.13 1017.96 1017.78 1017.60 1017.44 1017.31 1017.22 1017.14 1017.08 1017.00 1016.90 1016.75 1016.55 1016.30 1016.01 1015.68 1015.35 1015.02 1014.70 1014.40 1014.13 1013.86 1013.61 1013.36 1013.11 1012.86 1012.61 1012.36 1012.14 1011.93 1011.74
1016.42 1016.78 1017.08 1017.34 1017.58 1017.79 1017.98 1018.13 1018.24 1018.29 1018.27 1018.20 1018.07 1017.91 1017.74 1017.57 1017.42 1017.30 1017.20 1017.12 1017.03 1016.94 1016.82 1016.65 1016.44 1016.18 1015.90 1015.59 1015.27 1014.97 1014.67 1014.41 1014.16 1013.92 1013.70 1013.48 1013.26 1013.04 1012.82 1012.62 1012.44 1012.28 1012.14
1016.37 1016.73 1017.04 1017.30 1017.54 1017.76 1017.94 1018.08 1018.17 1018.21 1018.18 1018.11 1017.99 1017.84 1017.68 1017.52 1017.38 1017.25 1017.14 1017.04 1016.93 1016.81 1016.65 1016.46 1016.24 1015.98 1015.70 1015.41 1015.11 1014.83 1014.57 1014.33 1014.10 1013.89 1013.68 1013.47 1013.27 1013.07 1012.88 1012.71 1012.56 1012.44 1012.35
Thickness
5783 5784 5782 5780 5777 5774 5772 5769 5767 5765 5762 5757 5753 5750 5748 5748 5747 5747 5746 5745 5744 5743 5742 5741 5740 5739 5738 5736 5735 5733 5733 5732 5733 5731 5731 5733 5735 5736 5737 5737 5738 5738 5738
5781 5782 5781 5779 5776 5774 5771 5769 5766 5764 5761 5758 5755 5752 5749 5747 5746 5745 5744 5743 5742 5741 5740 5738 5737 5736 5735 5733 5732 5731 5729 5728 5729 5726 5724 5723 5725 5729 5733 5733 5734 5734 5735
5780 5780 5779 5777 5776 5774 5772 5770 5767 5764 5761 5758 5755 5751 5747 5745 5743 5742 5741 5741 5740 5739 5737 5736 5735 5734 5732 5730 5729 5728 5726 5724 5724 5724 5722 5717 5716 5719 5724 5726 5728 5729 5730
5783 5781 5779 5777 5776 5775 5773 5770 5767 5763 5761 5758 5753 5749 5744 5740 5739 5739 5739 5738 5737 5736 5735 5734 5733 5731 5729 5727 5726 5725 5724 5722 5720 5720 5720 5719 5719 5715 5714 5719 5722 5724 5725
5785 5782 5781 5779 5777 5776 5772 5769 5765 5762 5759 5756 5753 5748 5744 5741 5739 5738 5736 5735 5734 5733 5732 5731 5730 5728 5726 5724 5723 5722 5721 5720 5718 5717 5716 5715 5714 5714 5711 5710 5713 5716 5719
5786 5784 5782 5780 5777 5775 5772 5768 5763 5760 5758 5754 5751 5747 5743 5740 5737 5735 5732 5731 5731 5730 5729 5728 5726 5725 5723 5721 5720 5718 5717 5717 5716 5715 5714 5712 5711 5710 5709 5707 5707 5708 5712
5787 5783 5780 5778 5775 5772 5769 5766 5762 5758 5756 5753 5749 5746 5742 5738 5735 5733 5731 5728 5727 5726 5725 5725 5723 5721 5720 5718 5717 5715 5714 5713 5712 5711 5710 5710 5710 5710 5708 5706 5704 5703 5705
5787 5783 5781 5778 5774 5771 5768 5765 5761 5757 5755 5751 5748 5745 5742 5738 5736 5733 5730 5727 5725 5725 5724 5723 5720 5718 5717 5715 5714 5712 5711 5710 5709 5708 5707 5707 5707 5706 5706 5704 5702 5699 5699
5787 5784 5782 5778 5774 5771 5767 5764 5760 5756 5753 5750 5747 5744 5741 5738 5735 5732 5729 5727 5724 5723 5722 5720 5718 5715 5713 5712 5710 5709 5707 5706 5705 5704 5703 5703 5703 5703 5703 5702 5701 5698 5694
5786 5783 5780 5777 5774 5772 5768 5764 5760 5756 5752 5749 5746 5743 5739 5736 5733 5729 5726 5724 5722 5720 5719 5716 5714 5712 5710 5708 5706 5705 5703 5702 5700 5699 5699 5699 5699 5698 5698 5698 5698 5696 5694
5785 5782 5779 5776 5773 5770 5766 5762 5758 5754 5750 5747 5743 5740 5737 5734 5730 5727 5724 5722 5720 5717 5715 5713 5710 5708 5706 5704 5702 5701 5699 5698 5696 5695 5695 5694 5694 5693 5693 5693 5692 5691 5690
5785 5782 5778 5774 5770 5766 5763 5760 5757 5753 5749 5745 5741 5738 5734 5731 5728 5725 5722 5720 5717 5714 5712 5709 5707 5705 5702 5700 5698 5696 5694 5693 5691 5690 5690 5689 5689 5688 5687 5686 5686 5686 5685
5781 5778 5774 5770 5766 5763 5761 5758 5755 5751 5748 5744 5739 5735 5731 5728 5725 5723 5720 5717 5714 5711 5708 5705 5703 5700 5698 5696 5694 5692 5690 5688 5687 5686 5685 5684 5683 5682 5681 5681 5680 5680 5680
5777 5774 5770 5767 5764 5760 5758 5755 5752 5749 5746 5741 5736 5732 5728 5725 5723 5720 5717 5715 5712 5708 5705 5702 5699 5697 5695 5692 5690 5688 5686 5684 5682 5681 5680 5679 5678 5677 5676 5675 5674 5673 5672
5774 5771 5768 5765 5762 5758 5755 5753 5750 5747 5743 5738 5733 5729 5726 5723 5720 5717 5714 5712 5708 5705 5702 5698 5695 5693 5691 5689 5686 5684 5682 5679 5677 5676 5674 5674 5673 5673 5671 5671 5669 5668 5666
5772 5771 5768 5764 5760 5757 5753 5750 5747 5743 5740 5735 5731 5727 5723 5720 5717 5714 5711 5708 5705 5702 5698 5695 5692 5689 5688 5685 5683 5680 5678 5675 5672 5670 5668 5668 5667 5667 5666 5666 5664 5663 5662
5770 5768 5766 5763 5760 5756 5752 5747 5744 5740 5736 5732 5728 5724 5720 5717 5714 5712 5708 5704 5701 5698 5694 5691 5688 5686 5684 5682 5680 5677 5673 5670 5667 5664 5663 5663 5662 5660 5659 5658 5658 5657 5656
5768 5766 5764 5761 5758 5754 5750 5746 5741 5736 5732 5728 5724 5721 5717 5714 5711 5707 5703 5700 5697 5694 5691 5688 5685 5682 5680 5678 5675 5671 5668 5664 5662 5659 5657 5656 5654 5654 5652 5651 5650 5650 5649
5768 5765 5764 5760 5755 5751 5747 5742 5736 5731 5727 5724 5720 5717 5714 5710 5706 5703 5700 5697 5693 5690 5687 5684 5681 5678 5676 5673 5669 5666 5662 5658 5656 5654 5652 5650 5648 5647 5646 5645 5643 5643 5643
5764 5761 5759 5755 5750 5747 5743 5738 5732 5727 5723 5720 5717 5714 5710 5707 5703 5700 5696 5693 5689 5686 5683 5679 5677 5674 5671 5668 5664 5661 5656 5653 5651 5648 5647 5645 5643 5641 5639 5637 5637 5636 5635
5758 5756 5752 5748 5745 5741 5737 5731 5727 5722 5720 5716 5711 5709 5706 5702 5699 5696 5692 5688 5685 5681 5678 5674 5671 5669 5666 5663 5660 5656 5651 5648 5645 5643 5641 5639 5637 5635 5633 5631 5630 5629 5628
5750 5748 5744 5740 5738 5735 5730 5725 5720 5718 5715 5710 5705 5703 5700 5697 5695 5690 5686 5682 5679 5675 5671 5668 5665 5662 5660 5657 5654 5650 5647 5643 5639 5637 5635 5633 5631 5629 5628 5626 5625 5623 5621
5742 5739 5736 5733 5730 5728 5724 5719 5715 5712 5708 5703 5699 5697 5695 5691 5688 5684 5680 5676 5672 5668 5665 5662 5658 5656 5653 5651 5648 5645 5642 5638 5634 5632 5629 5627 5625 5623 5622 5620 5618 5616 5614
5733 5731 5728 5724 5721 5720 5717 5714 5709 5705 5700 5696 5693 5691 5689 5685 5682 5679 5675 5671 5667 5663 5660 5656 5653 5649 5646 5644 5642 5638 5635 5632 5628 5625 5623 5620 5618 5616 5615 5613 5611 5609 5607
5724 5722 5719 5716 5714 5712 5710 5708 5704 5699 5694 5691 5688 5685 5683 5679 5676 5673 5670 5667 5664 5660 5656 5652 5648 5644 5641 5639 5635 5632 5629 5626 5622 5618 5615 5613 5610 5609 5608 5606 5604 5602 5600
5716 5713 5710 5708 5706 5704 5702 5699 5696 5693 5689 5685 5682 5679 5677 5673 5670 5666 5663 5661 5659 5656 5651 5647 5643 5640 5637 5634 5629 5626 5622 5619 5615 5611 5609 5607 5604 5602 5601 5600 5598 5595 5593